星链-31942 (STARLINK-31942 )

导读

STARLINK-31942是美国SpaceX星链星座的成员,于2024年5月28日发射升空,星链项目旨在构建全球卫星互联网星座,为全球用户提供高速宽带网络服务。该卫星延续了星链星座的设计标准,承担卫星通信组网任务,助力完善星链低轨卫星通信网络的覆盖范围与服务能力。

Basic Information
目录编号:
59899
目录名称:
STARLINK-31942
国际标识:
2024-100Q
轨道中心:
EARTH
卫星名称:
星链-31942
卫星全名:
星链-31942 (STARLINK-31942 )
卫星状态:
在轨 (已飞行836 天)
发射日期:
2024-05-28 UTC
国别 :
美国 (US)
星等 :
--
This satellite is enrolled in the Space Conjunction Data Service (SCDS) and the current flight risk assessment level is: No High Risk
Orbit Information
数据来源 国际轨道数据 AOE轨道数据
星历时间 2026-09-11T11:47:41+0800
13小时前
查看轨道信息
2026-09-09T23:00:00+0800
2天前
查看轨道信息
半长轴 6861.109km 6861.188km
偏心率 0.0001964 0.0001769
轨道倾角 43.002° 42.999°
近地点辐角 258.306° 229.601°
升交点赤经 157.813° 166.477°
平近点角 101.757° 329.498°
近地点 481.624km 481.837km
远地点 484.32km 484.265km
周期 94.265分钟 94.267分钟
每日圈数 15.27606 15.275794
Detailed Information
固有亮度:
5
最大亮度:
1.5
卫星平台:
Starlink v2.0 mini
覆盖范围:
全球
运营商:
太空探索技术公司
运营商所在国:
美国
制造商(研发单位):
太空探索技术公司
制造商所在国:
美国
使用方式:
暂无
Satellite Introduction
星链(Starlink)计划是由太空探索技术公司(SpaceX)提出的一个巨型低轨卫星互联网星座项目,计划在2019年至2024年间在太空搭建由约1.2万颗卫星组成的“星链”网络,其中1584颗将部署在地球上空550千米处的近地轨道,并从2020年开始工作。该卫星仍在工作。
2D Orbit Map
3D Orbit Map
Orbit Altitude Analysis Chart
Orbit Inclination Analysis Chart
Orbit Comprehensive Analysis Chart
View Comprehensive Chart
Conjunction Data List
Event ID Objects TCA Miss Dist (km) Collision Risk Probability Collision Risk Index (CRI) Action
CDM_260913-110805-989906-763421
2026-09-13T
11:08:03+0000
0.432 km
远距离
7.889636E-5 中风险 0.73
CDM_260911-085705-989906-710921
2026-09-11T
08:57:55+0000
0.593 km
远距离
5.777284E-5 中风险 0.7
CDM_260910-060505-989906-379521
2026-09-10T
06:05:39+0000
0.782 km
远距离
3.348125E-5 中风险 0.65
CDM_260911-050205-989906-710921
2026-09-11T
05:02:32+0000
0.991 km
远距离
1.098856E-5 中风险 0.56
CDM_260912-173405-989906-685721
2026-09-12T
17:34:05+0000
1.286 km
极远距离
8.50504E-6 低风险 0.54
CDM_260913-052005-989906-685721
2026-09-13T
05:20:13+0000
1.429 km
极远距离
5.948569E-6 低风险 0.5
CDM_260911-100105-989906-383422
HERMES-5 (63834)
2026-09-11T
10:01:45+0000
1.577 km
极远距离
3.472118E-6 低风险 0.46
CDM_260912-195105-989906-261621
2026-09-12T
19:51:15+0000
2.020 km
极远距离
2.733239E-6 低风险 0.44
CDM_260912-190805-989906-685721
2026-09-12T
19:08:14+0000
2.034 km
极远距离
2.12099E-6 低风险 0.42
CDM_260912-003505-989906-431321
2026-09-12T
00:35:22+0000
2.182 km
极远距离
1.569147E-6 低风险 0.39
Miss Distance Evolution Trend with All Objects
Collision Probability Evolution Trend with All Objects